RH
91 94 96 98 100 96 92 85 75 71 77 82 80 69 54 44 34 36 25 19 25 28 26 29 32 26 24 24 22 21 27 29 28 27 24 19 21 16 14 15 16 16 14 25 39
98 96 96 98 99 100 96 90 83 74 71 81 82 72 58 46 48 27 20 18 20 25 29 23 23 21 21 23 23 25 28 25 21 17 21 19 18 17 16 17 16 15 21 33 42
98 98 96 96 97 98 100 97 90 82 71 82 87 74 58 42 30 18 25 28 21 25 28 20 17 19 21 19 22 22 28 23 19 13 12 17 17 14 17 21 16 16 16 28 38
89 98 98 98 97 96 99 100 94 87 76 84 87 74 59 51 33 21 23 25 30 34 29 21 18 23 23 23 18 23 20 20 19 16 15 15 14 14 14 16 12 11 10 20 30
72 88 95 98 98 98 97 100 98 89 78 86 88 74 59 37 29 19 18 32 44 39 26 19 19 19 22 18 18 21 17 17 16 16 16 15 16 16 15 12 11 12 12 13 18
79 72 92 96 98 99 97 97 100 94 80 88 85 75 56 46 24 20 30 39 33 34 23 17 18 14 16 17 18 15 16 16 15 16 15 17 15 13 12 10 11 11 13 13 13
80 81 73 93 96 98 100 98 99 98 83 89 83 80 48 38 21 26 35 36 33 31 20 18 18 16 15 17 15 16 18 15 15 14 15 16 18 15 11 11 11 11 12 12 13
80 84 76 78 97 80 87 99 100 98 95 87 86 70 51 29 30 26 27 28 31 28 22 18 19 17 18 17 19 20 18 21 14 15 17 18 16 9 11 11 12 12 10 10 14
91 88 85 71 84 85 75 89 96 100 96 91 81 59 41 30 29 26 23 23 26 25 23 19 18 19 19 22 21 20 19 19 17 14 14 17 15 12 13 13 12 11 10 10 13
89 94 79 77 65 86 75 79 88 100 99 94 65 50 37 28 22 21 20 18 23 23 22 20 19 22 21 20 25 21 21 17 18 18 18 18 18 14 13 12 12 12 10 10 11
91 92 81 80 78 88 78 76 100 99 96 74 60 41 21 24 23 22 18 18 23 25 27 22 25 25 20 18 16 16 18 19 15 16 24 22 19 16 14 14 14 13 12 10 10
88 95 85 81 85 85 85 88 89 99 94 68 48 40 27 29 24 19 19 22 26 31 23 24 28 18 17 16 18 19 22 21 17 16 24 22 21 18 16 15 14 13 11 11 10
89 82 93 79 82 88 82 76 74 94 95 72 62 51 33 30 26 22 18 18 26 28 25 25 24 18 18 19 21 23 23 22 21 19 19 21 24 19 14 14 14 12 12 11 10
91 86 91 87 78 62 74 100 98 100 98 84 80 68 43 30 33 18 19 17 23 27 25 26 19 22 21 24 23 27 19 21 25 25 29 20 33 21 16 15 14 14 12 12 13
91 84 91 94 82 68 68 89 76 99 98 61 56 41 40 32 26 27 19 16 24 25 24 30 26 27 28 26 21 24 20 21 26 28 27 24 28 21 17 18 15 14 17 15 14
96 87 90 74 73 67 62 81 79 100 96 76 48 49 47 41 27 24 25 20 19 23 23 25 22 23 25 22 22 21 26 27 28 28 35 24 25 23 19 15 10 10 10 11 16
96 90 91 77 76 66 73 75 99 97 84 88 56 44 43 44 32 30 32 34 32 35 35 32 28 25 24 27 26 27 28 37 37 41 36 21 27 23 18 15 13 13 12 12 17
91 93 76 69 67 70 79 98 96 73 79 54 45 42 45 35 34 31 33 36 28 28 31 39 40 30 27 26 32 32 29 33 42 34 28 26 31 21 14 12 12 12 13 14 16
86 71 62 66 74 73 92 99 87 60 64 52 43 49 50 38 31 30 33 32 29 27 36 34 34 23 24 23 23 29 36 23 29 25 31 27 22 16 14 14 11 13 13 16 20
86 71 64 60 75 79 96 90 79 55 67 74 62 43 50 45 38 32 35 28 29 25 23 24 34 27 26 24 23 24 23 35 33 46 46 32 28 25 15 14 14 14 16 19 24
84 79 48 64 82 96 95 76 46 40 49 95 64 44 38 49 40 33 33 28 25 26 23 24 27 36 29 32 32 32 32 28 26 30 37 34 26 15 16 14 16 15 15 18 24
80 89 62 78 98 97 87 56 44 40 37 53 92 78 45 32 39 32 33 28 22 25 30 24 27 34 35 24 23 25 27 26 34 33 29 31 30 14 13 14 16 16 15 17 23
92 60 52 73 98 89 55 49 44 44 44 93 92 67 39 36 38 32 30 24 24 26 30 27 33 38 35 32 28 31 26 25 25 25 30 33 29 15 15 16 15 16 15 16 23
95 80 69 88 90 95 65 51 47 39 42 42 91 78 58 48 31 39 31 36 26 26 41 31 31 34 36 34 27 35 30 26 27 32 32 30 26 20 18 18 17 15 15 14 19
94 77 62 76 74 97 94 93 69 48 42 42 81 92 81 77 42 52 31 40 33 34 33 29 37 30 28 23 25 26 29 28 30 28 31 27 25 21 19 18 17 15 16 16 15
100 83 54 67 54 55 76 71 70 55 52 49 85 82 70 63 54 54 32 36 37 30 32 29 37 32 34 27 27 29 27 27 28 27 27 25 26 18 16 15 16 15 15 17 18
81 69 77 61 54 65 70 83 90 63 56 50 36 52 74 59 36 33 26 27 27 33 35 34 35 36 42 32 32 40 31 27 26 24 24 29 23 19 19 18 18 18 18 17 16
Wind_Speed
19 21 23 22 22 22 21 17 16 16 16 16 15 16 17 18 22 17 16 10 8 15 9 8 8 8 7 7 6 4 7 8 5 5 4 6 9 5 2 3 5 6 3 6 15
19 20 22 24 22 23 22 21 18 16 16 16 16 16 16 17 20 24 18 14 13 8 12 13 12 10 10 10 6 9 9 8 4 1 1 5 7 7 7 9 9 8 8 10 15
20 19 20 23 25 22 26 22 20 17 16 16 16 15 14 14 13 8 3 11 17 13 14 13 13 9 12 9 12 14 12 5 4 2 2 3 5 3 8 11 9 9 13 13 14
22 20 21 22 23 25 22 25 22 19 16 15 15 15 13 8 6 4 3 4 11 14 14 13 12 13 11 11 13 11 14 4 2 4 3 6 2 6 10 12 5 4 5 13 14
23 23 22 23 22 24 24 25 24 20 15 15 15 12 9 9 17 14 13 9 10 16 17 14 14 14 13 11 8 14 13 7 7 5 6 4 10 12 13 12 12 7 6 10 13
24 23 22 24 24 23 23 25 26 21 16 16 13 9 10 15 8 7 7 7 13 19 18 17 10 11 8 16 11 5 15 10 10 11 7 8 13 6 11 11 15 15 13 12 13
24 24 24 23 24 24 23 25 25 25 18 15 11 7 14 20 2 6 4 9 13 19 13 16 11 7 7 6 7 6 9 11 12 12 11 5 14 18 18 16 16 14 13 13 13
25 25 24 25 23 27 25 22 20 19 17 13 9 9 12 9 19 21 9 9 11 16 14 14 13 11 7 5 5 10 11 12 11 7 4 6 15 11 3 5 9 14 14 12 13
26 25 23 24 23 24 27 29 19 19 17 13 8 13 14 7 13 21 24 14 13 14 14 8 12 13 9 11 11 11 10 14 9 8 3 11 9 5 3 4 8 9 11 12 13
25 25 23 21 23 22 26 28 18 21 17 9 12 8 15 16 14 11 23 23 15 14 11 11 11 13 13 13 13 14 13 11 9 8 7 10 14 14 15 15 15 14 14 14 14
25 24 20 18 19 18 22 13 4 5 14 12 14 14 6 17 7 13 22 24 17 16 17 18 14 19 21 19 16 12 10 11 7 4 3 13 16 16 14 16 17 17 17 17 17
22 21 20 17 17 15 13 3 9 7 7 20 18 18 22 4 10 15 24 18 16 19 21 15 21 20 18 17 17 16 14 15 14 10 3 13 17 20 20 20 20 19 18 18 18
21 22 20 17 16 14 12 15 24 20 5 11 27 23 10 18 14 20 24 25 22 23 24 24 14 22 18 19 16 16 16 14 15 7 13 20 18 21 13 11 13 15 16 16 16
20 19 19 18 13 13 8 4 21 17 6 7 10 13 24 10 11 17 29 25 15 24 23 24 22 10 20 18 17 18 16 14 13 13 12 2 7 17 17 19 17 16 16 14 12
19 20 19 15 16 15 8 16 23 3 6 14 20 11 22 23 10 19 24 22 21 19 20 18 22 18 20 20 20 17 14 14 12 14 16 16 11 14 9 13 14 4 4 2 8
21 20 19 19 17 16 15 16 11 5 7 9 12 21 26 28 27 17 17 11 17 18 18 22 9 16 17 16 13 8 7 5 7 9 13 16 14 9 8 7 4 6 7 6 5
23 22 19 18 14 11 6 2 4 6 9 7 14 24 34 28 33 18 25 23 15 18 17 16 16 11 11 19 10 13 11 6 9 7 10 12 8 13 14 17 13 10 11 6 2
25 24 22 19 19 17 7 2 9 5 11 6 11 20 30 25 32 27 25 25 27 24 15 17 16 21 14 20 12 22 19 10 10 12 10 3 6 3 3 3 11 9 8 7 7
24 21 18 17 16 18 6 7 4 8 7 6 14 20 26 25 19 33 29 30 30 28 23 18 17 17 15 20 20 17 20 19 21 19 14 11 13 15 14 16 5 9 12 7 5
18 19 24 22 16 17 8 16 9 15 2 13 15 17 23 29 23 33 31 31 30 31 25 16 14 10 19 12 22 22 11 13 10 13 16 11 14 8 6 4 3 9 8 3 2
13 4 6 11 18 6 10 12 18 21 13 5 11 14 21 25 31 30 27 18 32 29 27 20 16 10 14 17 17 13 16 13 13 15 9 12 10 8 10 4 5 10 6 3 4
4 4 3 12 6 3 12 22 20 13 18 16 8 13 20 26 30 27 32 29 23 27 33 29 12 12 21 8 22 21 20 23 13 14 14 16 16 6 7 8 4 7 4 2 3
3 6 6 8 6 11 16 23 24 19 17 6 9 15 17 20 21 26 24 20 15 27 27 24 14 15 15 8 7 12 20 21 22 17 23 13 7 5 3 2 5 5 2 3 4
3 3 4 4 4 8 17 20 21 23 24 18 6 13 17 16 18 20 23 8 13 23 14 22 20 26 19 17 14 23 23 25 23 17 17 22 21 17 11 10 13 11 7 7 8
3 4 3 3 5 9 11 10 21 23 20 17 9 15 14 8 18 10 21 7 10 18 22 18 24 21 23 18 8 18 24 23 27 25 22 18 22 19 18 15 16 16 9 11 12
2 3 2 9 14 14 12 16 20 19 25 26 17 12 22 21 20 23 24 16 14 19 23 20 12 21 18 22 11 14 17 22 24 25 27 24 26 20 18 14 13 14 13 12 13
6 9 4 7 11 10 13 8 6 18 19 28 29 23 20 22 9 14 12 12 13 22 24 22 15 13 19 16 14 20 22 19 21 22 22 22 21 19 18 16 16 11 10 10 10
Wind_Direction
315 322 308 300 290 276 275 282 288 287 288 294 302 308 311 311 310 295 262 251 215 240 216 197 212 214 218 209 233 247 242 223 191 217 164 157 200 189 10 252 216 181 353 85 138
324 320 317 304 298 283 271 273 278 282 284 290 296 303 309 315 308 283 256 241 240 215 201 202 204 196 211 216 210 224 227 240 48 18 221 167 235 187 215 214 211 191 118 140 155
313 316 315 315 300 291 271 266 273 276 278 284 290 297 307 318 292 248 157 223 224 212 226 224 227 207 232 220 216 219 245 222 177 181 185 185 228 224 240 245 241 230 182 171 180
312 308 309 313 306 296 285 265 263 270 271 276 285 293 305 299 276 105 179 328 218 210 219 218 219 211 226 212 223 247 233 270 173 168 202 221 233 235 241 255 6 331 296 168 198
307 308 307 305 311 304 288 273 257 259 257 265 276 286 298 238 246 269 275 296 196 193 211 211 212 216 223 218 210 234 245 219 235 218 239 248 248 259 261 245 261 238 232 226 208
302 299 305 302 307 310 290 274 254 247 239 250 262 272 252 256 256 237 253 223 193 195 211 214 220 220 264 237 228 270 238 233 240 237 225 247 262 256 249 239 253 239 236 234 226
304 299 293 299 297 306 321 284 271 235 230 238 239 236 256 240 216 219 212 215 207 202 208 215 226 205 222 232 231 248 242 228 234 234 234 247 261 252 253 251 242 245 233 235 235
306 298 293 296 297 300 304 311 274 225 222 219 225 228 251 249 245 236 230 218 210 208 224 218 222 239 232 111 189 221 233 253 242 187 184 220 270 272 77 255 251 251 241 229 228
313 307 286 288 297 304 301 310 266 226 213 200 205 217 249 192 222 227 216 215 197 200 206 216 209 216 195 213 223 209 245 209 193 184 202 214 277 113 138 213 252 248 233 228 220
320 311 290 290 296 302 309 302 267 215 194 188 231 190 244 231 212 214 206 206 192 186 184 199 204 212 217 214 224 228 215 250 249 162 210 245 256 267 270 265 263 257 248 231 226
324 316 300 286 295 299 318 324 182 255 188 178 182 222 23 197 177 202 186 190 200 190 198 201 213 213 218 224 235 258 265 264 249 166 244 264 271 274 275 275 266 261 254 255 235
329 326 315 294 296 291 308 236 273 26 297 239 230 225 246 317 225 195 176 183 196 199 205 194 222 222 227 233 229 243 250 250 261 269 225 277 284 287 273 263 267 266 261 252 252
326 327 323 309 295 286 257 250 281 303 248 221 215 216 218 215 230 195 189 197 194 205 206 214 216 224 223 227 233 232 241 251 266 268 268 275 278 269 244 241 259 259 255 257 252
320 324 322 316 288 273 244 331 3 216 247 182 189 235 225 210 234 231 198 191 197 214 213 227 219 212 216 226 215 240 232 251 281 278 276 165 290 296 288 278 272 265 260 248 245
312 315 318 312 287 292 305 326 319 207 233 166 194 181 190 196 164 204 193 205 209 208 208 213 219 199 208 221 231 241 262 252 258 270 280 268 273 271 221 264 275 49 60 12 249
303 311 303 307 272 264 273 311 350 235 247 192 176 190 180 202 215 166 188 203 222 214 226 225 208 219 219 219 225 236 203 222 239 258 259 257 242 270 242 251 285 278 256 238 245
302 306 297 288 270 271 264 113 255 216 157 195 184 180 190 195 201 177 184 193 186 194 201 216 213 210 215 217 191 195 205 235 228 216 248 257 257 257 289 279 306 305 303 302 245
302 296 293 271 257 237 227 239 217 282 200 194 196 194 198 182 202 191 188 197 207 202 183 200 211 202 194 213 194 209 216 218 226 248 262 133 234 235 237 304 269 301 307 276 258
301 294 282 266 234 211 204 209 265 225 306 226 191 188 203 198 190 199 204 204 201 205 219 196 222 188 191 207 207 194 220 233 258 275 279 257 248 251 253 278 276 311 307 281 251
297 296 275 249 213 200 212 225 229 242 341 306 189 206 193 196 208 195 202 212 210 208 215 225 212 191 186 211 225 232 203 212 228 245 248 246 249 251 193 214 10 351 337 322 207
290 266 257 201 186 200 213 226 231 253 270 289 265 230 211 189 199 201 204 205 202 198 210 219 216 169 161 206 193 202 221 219 237 226 254 269 259 214 207 193 322 332 352 325 180
267 252 217 180 199 206 220 221 238 247 242 236 310 265 261 202 200 214 211 205 201 197 200 211 201 204 199 213 219 210 215 217 224 224 231 249 262 222 178 209 301 318 354 42 175
251 266 240 185 242 211 229 230 236 239 251 219 232 244 245 235 206 214 208 227 182 192 195 201 221 219 204 182 207 229 223 223 227 247 251 228 216 61 269 235 238 276 327 136 173
267 277 206 192 261 256 245 237 233 227 237 241 273 286 268 274 196 205 220 206 199 198 175 202 211 217 216 210 203 215 221 223 225 233 243 244 257 249 219 246 266 252 239 205 182
237 244 278 276 280 318 302 312 241 230 215 220 255 248 258 232 209 242 200 158 209 190 189 214 215 224 237 232 211 212 217 219 224 233 238 249 250 250 254 256 269 268 234 249 220
275 258 242 284 282 288 290 284 247 238 238 219 222 240 237 236 215 202 197 188 176 185 194 211 213 225 226 236 197 229 218 220 232 229 244 251 256 262 269 275 270 278 268 262 252
221 268 268 271 280 282 274 271 295 266 227 247 225 233 251 254 328 238 196 211 179 176 188 197 205 199 225 215 239 243 226 226 228 228 236 242 254 253 254 259 263 267 272 266 252